STARLINK-34546, 64718

Orbit data source: Space-Track

STARLINK-34546, 64718 is a payload satellite owned by SpaceX/Seattle (US) in LEO that was launched on Sat, 28 Jun 2025 UTC via an FALCON 9 launch vehicle from the Air Force Western Test Range (AFWTR). Payload-class satellites include a variety of spacecraft equipped with specific instruments for various scientific and technological missions. These include communications satellites like Starlink; space stations such as the ISS; scientific satellites like the Hubble; Earth observation satellites from companies like Planet Labs, Umbra, and HawkEye 360; GPS; miniature CubeSats for education and research; and military/defense satellites.

Loading next visibility...
Identifier
64718, 2025-142Y
Orbit
LEO
Country
Flag of USUS
Related business
Manufacturer
SpaceX/Seattle
Mission
Operational Commercial Communications
Bus & Motor
STARLINK V2MO, Unknown motor
Mass
575 kg wet, ~530 kg dry
Launch date (UTC)
2025-06-28 (1 year ago)
Launch vehicle
FALCON 9
Launch site
Air Force Western Test Range (AFWTR)
Object type
Payload
Rocket body
Debris
Shape & HBR
Box + 2 Pan, 17.7 m
Radar Cross Section
36.964 m², Large (>1 m²)

Expand to show TLE details & history
Last TLE update: 7 hours ago

TLE from 7 hours ago
0 STARLINK-34546
1 64718U 25142Y   26207.60829933  .00004022  00000-0  34461-3 0  9996
2 64718  70.0033 324.0218 0003199 265.0487  95.0307 14.98335252 60467
Epoch: 2026-07-26T14:35Z
TLE epoch observation values (Epoch: 2026-07-26T14:35:57.062Z)
Latitude
Longitude
160.73026°
Altitude
574.659 km
Speed
7.574 km/s
True Right ascension
21h 36m 05s
True Declination
0° 00' 00"
Sunlit
Object was in full shadow at epoch
Visualization orbit readout
Latitude
Unknown
Longitude
Unknown
Altitude
Unknown
Speed
Unknown
Apparent Right ascension
Unknown
Apparent Declination
Unknown
Sunlit
N/A
Visualization observer readout
Local Sidereal Time
11:04:52
Azimuth
Unknown
Elevation
Unknown
Doppler factor
Unknown
Orbital elements
Apogee altitude
572.21 km
Perigee altitude
567.765 km
Semi-major axis
6,948.125 km
Eccentricity
0.00032
Inclination
70.0033°
RAAN
324.0218°
Arg. of periapsis
265.0487°
True anomaly
95.06722°
Mean anomaly
95.0307°
Eccentric anomaly
95.04896°
Mean motion
3.7475 °/min
Orbital period
96.06 mins
BSTAR
0.00034461
Loading maneuver chart data...
Computing Atmospheric mass density...
Loading historical data...
Loading historical data...
Loading historical data...
Loading historical data...
Loading historical data...
Loading historical data...
Loading historical data...

Documentation

Showing up to 5 results
|